Date String (YYYY-MM-DD hh:mm:ss) UTC,Instrument flags,absolute air pressure of the measurement (hPa),sample flow rate (lpm),inlet stack bypass flow (lpm),air temperature of the measurement (°C),ambient temperature measured by the external sensor (°C),aerosol sample conditioner tube jacket temperature (°C),OPC LED temperature (°C),internal box temperature (°C),relative humidity of the measurement (%),span deviation,mass concentration of particles derived from Lorenz-Mie calculation of OPC scattering (μg/m³),mass concentration of particles derived from Lorenz-Mie calculation of OPC scattering (μg/m³),mass concentration of particles derived from Lorenz-Mie calculation of OPC scattering (μg/m³)
DateTimeUTC,F1_M11,P_M11,Q1_M11,Q2_M11,T1_M11,T2_M11,T3_M11,T4_M11,T5_M11,U1_M11,ZSPAN_M11,X0_M11,X2_M11,X1_M11
2024-03-31 18:00:00,SystemResetWarning,0818.0,5.00,000.00,020.6,020.1,000.0,029.0,022.4,25.1,0000.9,0012.94,0009.12,0008.41
2024-03-31 18:01:00,SystemResetWarning,0818.0,5.02,000.00,020.6,020.1,000.0,029.0,022.4,25.1,0000.6,0012.54,0009.08,0008.39
2024-03-31 18:02:00,SystemResetWarning,0818.0,4.99,000.00,020.6,020.1,000.0,029.0,022.4,25.0,0000.8,0012.43,0009.06,0008.39
2024-03-31 18:03:00,SystemResetWarning,0818.0,4.99,000.00,020.6,020.1,000.0,029.0,022.4,25.1,0000.8,0012.41,0009.04,0008.39
2024-03-31 18:04:00,SystemResetWarning,0818.0,5.00,000.00,020.6,020.1,000.0,029.0,022.4,25.1,0001.0,0012.39,0009.06,0008.40
2024-03-31 18:05:00,SystemResetWarning,0818.0,5.01,000.00,020.6,020.1,000.0,029.0,022.5,25.1,0000.8,0012.47,0009.08,0008.39
2024-03-31 18:06:00,SystemResetWarning,0818.0,5.01,000.00,020.6,020.1,000.0,029.1,022.5,25.0,0000.6,0012.45,0009.07,0008.39
2024-03-31 18:07:00,SystemResetWarning,0818.0,5.01,000.00,020.6,020.1,000.0,029.1,022.5,25.3,0000.3,0012.51,0009.09,0008.39
2024-03-31 18:08:00,SystemResetWarning,0818.0,5.00,000.00,020.6,020.1,000.0,029.1,022.5,25.6,0000.1,0012.57,0009.09,0008.41
2024-03-31 18:09:00,SystemResetWarning,0818.0,5.01,000.00,020.6,020.1,000.0,029.1,022.5,25.4,0000.2,0012.64,0009.08,0008.44
2024-03-31 18:10:00,SystemResetWarning,0818.0,5.00,000.00,020.7,020.1,000.0,029.1,022.5,25.5,0000.4,0012.83,0009.14,0008.47
2024-03-31 18:11:00,SystemResetWarning,0818.0,5.00,000.00,020.7,020.1,000.0,029.1,022.5,25.4,0000.7,0012.95,0009.22,0008.52
2024-03-31 18:12:00,SystemResetWarning,0818.0,5.00,000.00,020.7,020.1,000.0,029.1,022.5,25.4,0001.0,0013.03,0009.25,0008.55
2024-03-31 18:13:00,SystemResetWarning,0818.0,5.00,000.00,020.7,020.1,000.0,029.1,022.5,25.5,0001.3,0013.24,0009.34,0008.58
2024-03-31 18:14:00,SystemResetWarning,0818.0,5.00,000.00,020.7,020.1,000.0,029.1,022.5,25.5,0001.7,0013.36,0009.40,0008.62
2024-03-31 18:15:00,SystemResetWarning,0818.0,5.00,000.00,020.7,020.1,000.0,029.1,022.5,25.3,0001.7,0013.50,0009.45,0008.65
2024-03-31 18:16:00,SystemResetWarning,0818.0,5.00,000.00,020.7,020.1,000.0,029.1,022.5,25.4,0001.9,0013.49,0009.47,0008.70
2024-03-31 18:17:00,SystemResetWarning,0818.0,5.00,000.00,020.7,020.1,000.0,029.1,022.5,25.3,0002.0,0014.14,0009.49,0008.74
2024-03-31 18:18:00,SystemResetWarning,0818.0,5.00,000.00,020.7,020.1,000.0,029.1,022.5,25.4,0002.1,0014.12,0009.50,0008.78
2024-03-31 18:19:00,SystemResetWarning,0818.0,5.00,000.00,020.7,020.1,000.0,029.1,022.5,25.4,0002.1,0014.05,0009.53,0008.80
2024-03-31 18:20:00,SystemResetWarning,0817.9,5.00,000.00,020.7,020.2,000.0,029.2,022.5,25.4,0002.2,0014.30,0009.57,0008.81
2024-03-31 18:21:00,SystemResetWarning,0817.8,4.99,000.00,020.7,020.2,000.0,029.2,022.5,25.3,0002.1,0014.26,0009.58,0008.83
2024-03-31 18:22:00,SystemResetWarning,0817.7,5.00,000.00,020.7,020.2,000.0,029.2,022.5,25.2,0001.7,0014.49,0009.61,0008.83
2024-03-31 18:23:00,SystemResetWarning,0817.8,5.00,000.00,020.7,020.2,000.0,029.2,022.5,25.2,0001.4,0014.73,0009.60,0008.81
2024-03-31 18:24:00,SystemResetWarning,0817.8,5.00,000.00,020.7,020.2,000.0,029.2,022.6,25.2,0001.1,0015.72,0009.56,0008.81
2024-03-31 18:25:00,SystemResetWarning,0817.7,5.01,000.00,020.7,020.2,000.0,029.2,022.6,25.1,0000.8,0016.62,0009.56,0008.80
2024-03-31 18:26:00,SystemResetWarning,0817.8,5.00,000.00,020.7,020.2,000.0,029.2,022.6,25.1,0000.8,0016.65,0009.56,0008.79
2024-03-31 18:27:00,SystemResetWarning,0817.9,5.00,000.00,020.8,020.2,000.0,029.2,022.6,24.9,0000.6,0016.70,0009.55,0008.77
2024-03-31 18:28:00,SystemResetWarning,0817.9,5.01,000.00,020.7,020.2,000.0,029.2,022.6,24.9,0000.7,0016.14,0009.54,0008.74
2024-03-31 18:29:00,SystemResetWarning,0818.0,5.00,000.00,020.8,020.2,000.0,029.2,022.6,24.8,0000.7,0016.45,0009.51,0008.72
2024-03-31 18:30:00,SystemResetWarning,0818.0,5.00,000.00,020.8,020.2,000.0,029.2,022.6,24.9,0000.9,0016.56,0009.50,0008.69
2024-03-31 18:31:00,SystemResetWarning,0818.0,4.99,000.00,020.8,020.2,000.0,029.2,022.6,24.9,0001.0,0016.41,0009.44,0008.66
2024-03-31 18:32:00,SystemResetWarning,0817.9,4.99,000.00,020.8,020.2,000.0,029.2,022.6,24.8,0001.3,0016.32,0009.41,0008.63
2024-03-31 18:33:00,SystemResetWarning,0817.8,5.01,000.00,020.8,020.2,000.0,029.2,022.6,24.7,0001.6,0016.12,0009.36,0008.59
2024-03-31 18:34:00,SystemResetWarning,0817.8,5.01,000.00,020.8,020.2,000.0,029.2,022.6,24.8,0001.6,0015.88,0009.32,0008.57
2024-03-31 18:35:00,SystemResetWarning,0817.8,5.00,000.00,020.8,020.2,000.0,029.2,022.6,24.7,0001.4,0015.09,0009.31,0008.56
2024-03-31 18:36:00,SystemResetWarning,0817.7,5.00,000.00,020.8,020.2,000.0,029.2,022.6,24.8,0001.6,0014.48,0009.29,0008.53
2024-03-31 18:37:00,SystemResetWarning,0817.8,5.00,000.00,020.8,020.2,000.0,029.2,022.6,24.8,0001.5,0014.81,0009.26,0008.50
2024-03-31 18:38:00,SystemResetWarning,0817.7,4.99,000.00,020.8,020.2,000.0,029.2,022.6,25.0,0001.5,0015.16,0009.29,0008.49
2024-03-31 18:39:00,SystemResetWarning,0817.7,4.99,000.00,020.8,020.2,000.0,029.3,022.6,25.1,0001.6,0015.71,0009.30,0008.48
2024-03-31 18:40:00,SystemResetWarning,0817.6,5.00,000.00,020.8,020.2,000.0,029.3,022.6,25.1,0001.6,0015.96,0009.30,0008.47
2024-03-31 18:41:00,SystemResetWarning,0817.7,5.00,000.00,020.8,020.3,000.0,029.3,022.6,25.0,0001.6,0016.78,0009.26,0008.46
2024-03-31 18:42:00,SystemResetWarning,0817.7,5.00,000.00,020.8,020.3,000.0,029.3,022.6,24.9,0001.5,0016.96,0009.27,0008.46
2024-03-31 18:43:00,SystemResetWarning,0817.7,5.01,000.00,020.8,020.3,000.0,029.3,022.7,25.0,0001.2,0017.98,0009.26,0008.46
2024-03-31 18:44:00,SystemResetWarning,0817.7,5.00,000.00,020.8,020.3,000.0,029.3,022.7,25.1,0000.8,0018.01,0009.26,0008.46
2024-03-31 18:45:00,SystemResetWarning,0817.6,5.00,000.00,020.8,020.3,000.0,029.3,022.7,24.9,0000.6,0018.13,0009.27,0008.46
2024-03-31 18:46:00,SystemResetWarning,0817.6,5.00,000.00,020.8,020.3,000.0,029.3,022.7,25.0,0000.5,0018.81,0009.30,0008.48
2024-03-31 18:47:00,SystemResetWarning,0817.6,5.01,000.00,020.8,020.3,000.0,029.3,022.7,24.9,0000.6,0018.28,0009.26,0008.49
2024-03-31 18:48:00,SystemResetWarning,0817.5,5.00,000.00,020.9,020.3,000.0,029.3,022.7,24.8,0000.5,0017.97,0009.26,0008.51
2024-03-31 18:49:00,SystemResetWarning,0817.4,5.00,000.00,020.9,020.3,000.0,029.3,022.7,24.9,0000.6,0017.52,0009.22,0008.52
2024-03-31 18:50:00,SystemResetWarning,0817.4,4.99,000.00,020.9,020.3,000.0,029.3,022.7,24.9,0000.7,0016.93,0009.16,0008.50
2024-03-31 18:51:00,SystemResetWarning,0817.4,4.99,000.00,020.9,020.3,000.0,029.3,022.7,24.8,0001.0,0016.40,0009.14,0008.51
2024-03-31 18:52:00,SystemResetWarning,0817.4,5.00,000.00,020.9,020.3,000.0,029.3,022.7,25.2,0000.9,0016.44,0009.15,0008.50
2024-03-31 18:53:00,SystemResetWarning,0817.4,5.00,000.00,020.9,020.3,000.0,029.3,022.7,25.6,0001.1,0016.83,0009.17,0008.50
2024-03-31 18:54:00,SystemResetWarning,0817.4,5.01,000.00,020.9,020.3,000.0,029.3,022.7,25.1,0001.3,0016.15,0009.20,0008.52
2024-03-31 18:55:00,SystemResetWarning,0817.4,5.01,000.00,020.9,020.3,000.0,029.3,022.7,25.3,0001.2,0015.89,0009.24,0008.52
2024-03-31 18:56:00,SystemResetWarning,0817.4,4.99,000.00,020.9,020.3,000.0,029.3,022.7,25.3,0001.4,0015.95,0009.20,0008.51
2024-03-31 18:57:00,SystemResetWarning,0817.5,4.99,000.00,020.9,020.4,000.0,029.4,022.7,25.2,0001.9,0015.46,0009.16,0008.48
2024-03-31 18:58:00,SystemResetWarning,0817.5,5.00,000.00,020.9,020.4,000.0,029.4,022.7,24.9,0002.1,0015.36,0009.12,0008.43
2024-03-31 18:59:00,SystemResetWarning,0817.5,5.01,000.00,020.9,020.4,000.0,029.4,022.8,24.6,0002.0,0015.35,0009.09,0008.38
